FW6053 Weather Reports


Display with metric or nautical units.
time (UTC)temp
F
wind
direction
speed
MPH
gust
MPH
rain 1hr
in
rain 24hr
in
rain mn
in
humidity
%
barometer
mb
20260508153054 59 246 5.0 12.0 0.00 0.00 0.00 49 1016.8
20260508151557 60 227 3.0 10.0 0.00 0.00 0.00 49 1016.6
20260508150053 59 259 4.0 11.0 0.00 0.00 0.00 51 1016.6
20260508144555 59 298 5.0 13.0 0.00 0.01 0.00 50 1016.7
20260508143104 59 278 2.0 10.0 0.00 0.01 0.00 54 1016.6
20260508141556 59 253 3.0 14.0 0.00 0.01 0.00 53 1016.6
20260508140051 59 255 3.0 10.0 0.00 0.01 0.00 53 1016.5
20260508134552 60 247 3.0 9.0 0.00 0.01 0.00 54 1016.3
20260508133057 59 188 4.0 13.0 0.00 0.01 0.00 54 1016.3
20260508131552 59 201 4.0 12.0 0.00 0.01 0.00 54 1016.3
20260508130100 57 232 4.0 10.0 0.00 0.01 0.00 57 1016.2
20260508124554 57 277 5.0 14.0 0.00 0.01 0.00 56 1016.2
20260508123057 57 192 6.0 11.0 0.00 0.01 0.00 58 1016.2
20260508121605 57 226 3.0 12.0 0.00 0.01 0.00 59 1016.1
20260508120054 57 254 6.0 13.0 0.00 0.01 0.00 58 1016.2
20260508114554 57 327 6.0 13.0 0.00 0.01 0.00 59 1016.0
20260508113052 57 229 6.0 13.0 0.00 0.01 0.00 61 1015.9
20260508111553 57 305 6.0 18.0 0.00 0.01 0.00 61 1015.8
20260508110059 57 280 6.0 13.0 0.00 0.01 0.00 62 1015.8
20260508104555 56 242 5.0 14.0 0.00 0.01 0.00 64 1015.6
20260508103055 55 272 4.0 11.0 0.00 0.01 0.00 68 1015.6
20260508101556 54 236 4.0 12.0 0.00 0.01 0.00 70 1015.7
20260508100058 54 181 8.0 15.0 0.00 0.00 0.00 69 1015.5
20260508094605 53 206 4.0 13.0 0.00 0.00 0.00 73 1015.6
20260508093053 52 190 5.0 13.0 0.00 0.00 0.00 72 1015.4
20260508091605 53 182 6.0 11.0 0.00 0.00 0.00 74 1015.4
20260508090054 52 265 5.0 12.0 0.00 0.00 0.00 75 1015.3
20260508084555 52 213 5.0 10.0 0.00 0.00 0.00 79 1015.3
20260508083132 51 195 4.0 10.0 0.00 0.00 0.00 79 1015.2
20260508081555 51 244 4.0 12.0 0.00 0.00 0.00 80 1015.1
20260508074555 50 234 4.0 11.0 0.00 0.00 0.00 83 1014.8
20260508073100 50 248 4.0 11.0 0.00 0.00 0.00 84 1014.6
20260508071557 50 198 5.0 13.0 0.00 0.00 0.00 86 1014.5
20260508070058 49 199 4.0 11.0 0.00 0.00 0.00 87 1014.3
20260508064607 49 252 2.0 8.0 0.00 0.00 0.00 87 1014.1
20260508063058 49 249 3.0 8.0 0.00 0.00 0.00 88 1014.0
20260508061559 48 233 1.0 5.0 0.00 0.00 0.00 89 1014.0
20260508060107 47 0 1.0 3.0 0.00 0.00 0.00 89 1013.7
20260508054600 47 0 1.0 4.0 0.00 0.00 0.00 89 1013.5
20260508053102 46 0 0.0 3.0 0.00 0.00 0.00 88 1013.2
20260508051550 47 0 0.0 3.0 0.00 0.00 0.00 88 1013.1
20260508050058 47 259 0.0 3.0 0.00 0.00 0.00 88 1013.0
20260508044552 47 0 2.0 6.0 0.00 0.00 0.00 88 1013.1
20260508043052 47 250 1.0 4.0 0.00 0.00 0.00 88 1013.0
20260508041555 47 242 2.0 4.0 0.00 0.00 0.00 88 1013.0
20260508040110 47 0 0.0 5.0 0.00 0.00 0.00 87 1012.7
20260508034557 47 198 2.0 8.0 0.00 0.00 0.00 87 1012.5
20260508033101 47 215 2.0 8.0 0.00 0.00 0.00 87 1012.5
20260508031551 47 240 2.0 6.0 0.00 0.00 0.00 86 1012.5
20260508030108 47 237 2.0 10.0 0.00 0.00 0.00 86 1012.5
20260508024604 47 267 4.0 8.0 0.00 0.00 0.00 85 1012.5
20260508023054 47 209 1.0 3.0 0.00 0.00 0.00 84 1012.6
20260508021552 47 0 0.0 3.0 0.00 0.00 0.00 84 1012.5
20260508020053 47 192 1.0 3.0 0.00 0.00 0.00 84 1012.5
20260508014553 47 197 0.0 3.0 0.00 0.00 0.00 85 1012.5
20260508013055 47 197 1.0 2.0 0.00 0.00 0.00 85 1012.4
20260508011602 47 0 0.0 1.0 0.00 0.00 0.00 85 1012.5
20260508010105 47 0 0.0 2.0 0.00 0.00 0.00 85 1012.5
20260508004602 47 197 1.0 4.0 0.00 0.00 0.00 85 1012.5
20260508003108 47 228 0.0 3.0 0.00 0.00 0.00 85 1012.5
20260508001555 47 227 1.0 4.0 0.00 0.00 0.00 85 1012.4
20260508000053 47 246 2.0 5.0 0.00 0.00 0.00 85 1012.4
20260507234555 47 241 0.0 6.0 0.00 0.00 0.00 86 1012.4
20260507233052 46 0 0.0 2.0 0.00 0.00 0.00 85 1012.5
20260507231608 47 0 0.0 1.0 0.00 0.00 0.00 84 1012.3
20260507230059 47 0 0.0 2.0 0.00 0.00 0.00 84 1012.5
20260507224605 47 0 0.0 2.0 0.00 0.00 0.00 83 1012.3
20260507223053 48 0 0.0 1.0 0.00 0.00 0.00 82 1012.4
20260507221556 48 0 0.0 2.0 0.00 0.00 0.00 81 1012.5
20260507220056 49 0 0.0 1.0 0.00 0.00 0.00 81 1012.3
20260507214607 49 212 0.0 3.0 0.00 0.00 0.00 81 1012.4
20260507213107 49 220 0.0 4.0 0.00 0.00 0.00 80 1012.3
20260507211555 50 213 0.0 3.0 0.00 0.00 0.00 80 1012.2
20260507210056 50 196 1.0 7.0 0.00 0.00 0.00 79 1012.2
20260507204601 50 196 2.0 5.0 0.00 0.00 0.00 79 1012.2
20260507203053 50 227 0.0 3.0 0.00 0.00 0.00 80 1012.2
20260507201553 51 0 0.0 3.0 0.00 0.00 0.00 79 1011.9
20260507200053 51 218 1.0 5.0 0.00 0.00 0.00 78 1011.9
20260507194552 51 230 1.0 7.0 0.00 0.00 0.00 77 1011.9
20260507193106 51 234 3.0 10.0 0.00 0.00 0.00 77 1011.8
20260507191554 52 200 4.0 10.0 0.00 0.00 0.00 76 1011.6
20260507184556 52 188 4.0 9.0 0.00 0.00 0.00 75 1011.5
20260507183057 53 170 2.0 8.0 0.00 0.00 0.00 75 1011.5
20260507181553 53 186 3.0 6.0 0.00 0.00 0.00 74 1011.5
20260507180103 53 188 3.0 8.0 0.00 0.00 0.00 74 1011.3
20260507174552 53 232 2.0 7.0 0.00 0.00 0.00 74 1011.4
20260507173057 52 199 2.0 6.0 0.00 0.00 0.00 75 1011.6
20260507171556 51 237 1.0 4.0 0.00 0.00 0.00 76 1011.5
20260507170054 51 241 2.0 7.0 0.00 0.00 0.00 76 1011.7
20260507164556 51 226 4.0 9.0 0.00 0.00 0.00 77 1011.8
20260507163053 51 175 4.0 11.0 0.00 0.00 0.00 79 1011.9
20260507161556 51 190 4.0 9.0 0.00 0.00 0.00 80 1011.9
20260507160101 50 194 2.0 7.0 0.00 0.00 0.00 81 1012.0
20260507154553 50 209 1.0 7.0 0.00 0.00 0.00 83 1012.1